Time_in_sec,Latitude,Longitude,Altitude,Nbsat_max_qualitysignal,Nbsat_locked,valid_data
1314362995.82153583,0.00009785,0.00002934,975.81719971,0,0,0
1314363187.96144748,0.00009104,0.00003623,-388.66244507,0,0,0
1314363188.02048373,0.00009104,0.00003624,-389.03485107,0,0,0
1314363188.06878519,0.00009104,0.00003624,-389.59344482,0,0,0
1314363188.12045598,0.00009124,0.00003628,-390.05847168,0,0,0
1314363188.16961598,0.00009103,0.00003625,-390.52474976,0,0,0
1314363188.22146106,0.00009124,0.00003629,-390.98989868,0,0,0
1314363188.27253509,0.00009103,0.00003626,-391.45632935,0,0,0
1314363188.32100201,0.00009123,0.00003630,-391.92166138,0,0,0
1314363188.37346959,0.00009102,0.00003627,-392.38821411,0,0,0
1314363188.42180324,0.00009122,0.00003631,-392.85360718,0,0,0
1314363188.46161532,0.00009101,0.00003628,-393.32025146,0,0,0
1314363188.52145171,0.00009101,0.00003628,-393.69314575,0,0,0
1314363188.57357478,0.00009101,0.00003629,-394.25253296,0,0,0
1314363188.62148809,0.00009121,0.00003633,-394.71820068,0,0,0
1314363188.66960955,0.00009100,0.00003630,-395.18511963,0,0,0
1314363188.72060132,0.00009120,0.00003634,-395.65084839,0,0,0
1314363188.76947784,0.00009099,0.00003631,-396.11782837,0,0,0
1314363188.82046890,0.00009120,0.00003635,-396.58364868,0,0,0
1314363188.87251854,0.00009099,0.00003632,-397.05068970,0,0,0
1314363188.92078900,0.00009119,0.00003636,-397.51666260,0,0,0
1314363188.97352052,0.00009098,0.00003633,-397.98394775,0,0,0
1314363189.02147269,0.00009118,0.00003637,-398.45004272,0,0,0
1314363189.06882477,0.00009098,0.00003634,-398.91735840,0,0,0
1314363189.12154865,0.00009118,0.00003638,-399.38357544,0,0,0
1314363189.16944742,0.00009097,0.00003635,-399.85104370,0,0,0
1314363189.22075367,0.00009117,0.00003639,-400.31735229,0,0,0
1314363189.27259684,0.00009096,0.00003636,-400.78497314,0,0,0
1314363189.32149982,0.00009116,0.00003640,-401.25140381,0,0,0
1314363189.37345862,0.00009096,0.00003637,-401.71908569,0,0,0
1314363189.42145848,0.00009116,0.00003641,-402.18563843,0,0,0
1314363189.47245359,0.00009095,0.00003638,-402.65350342,0,0,0
1314363189.52061057,0.00009115,0.00003642,-403.12014771,0,0,0
1314363189.57382321,0.00009094,0.00003639,-403.58816528,0,0,0
1314363189.62169671,0.00009114,0.00003643,-404.05502319,0,0,0
1314363189.67352200,0.00009094,0.00003641,-404.52307129,0,0,0
1314363189.70952320,0.00009114,0.00003645,-404.98999023,0,0,0
1314363189.76922607,0.00009113,0.00003645,-405.36404419,0,0,0
1314363189.82145715,0.00009113,0.00003646,-405.92520142,0,0,0
1314363189.86877489,0.00009092,0.00003643,-406.39346313,0,0,0
1314363189.92059135,0.00009112,0.00003647,-406.86056519,0,0,0
1314363189.96965504,0.00009091,0.00003644,-407.32897949,0,0,0
1314363190.02117419,0.00009112,0.00003648,-407.79623413,0,0,0
1314363190.06869650,0.00009091,0.00003645,-408.26473999,0,0,0
1314363190.12161875,0.00009111,0.00003649,-408.73208618,0,0,0
1314363190.17351818,0.00009090,0.00003646,-409.20068359,0,0,0
1314363190.22147346,0.00009110,0.00003650,-409.66815186,0,0,0
1314363190.27348757,0.00009089,0.00003647,-410.13687134,0,0,0
1314363190.32059693,0.00009110,0.00003651,-410.60440063,0,0,0
1314363190.36945581,0.00009089,0.00003649,-411.07327271,0,0,0
1314363190.42063737,0.00009109,0.00003653,-411.54095459,0,0,0
1314363190.46064329,0.00009088,0.00003650,-412.00991821,0,0,0
1314363190.52070904,0.00009088,0.00003650,-412.38470459,0,0,0
1314363190.56875753,0.00009087,0.00003651,-412.94686890,0,0,0
1314363190.62150407,0.00009108,0.00003655,-413.41473389,0,0,0
1314363190.66921830,0.00009086,0.00003652,-413.88397217,0,0,0
1314363190.70877790,0.00009107,0.00003656,-414.35202026,0,0,0
1314363190.76975131,0.00009106,0.00003657,-414.72695923,0,0,0
1314363190.82061195,0.00009106,0.00003657,-415.28945923,0,0,0
1314363190.86971235,0.00009085,0.00003654,-415.75891113,0,0,0
1314363190.92145848,0.00009105,0.00003658,-416.22720337,0,0,0
1314363190.96922731,0.00009084,0.00003656,-416.69674683,0,0,0
1314363191.02145863,0.00009105,0.00003660,-417.16513062,0,0,0
1314363191.06070375,0.00009083,0.00003657,-417.63482666,0,0,0
1314363191.12047029,0.00009083,0.00003657,-418.01010132,0,0,0
1314363191.17344618,0.00009083,0.00003658,-418.57308960,0,0,0
1314363191.22171497,0.00009103,0.00003662,-419.04171753,0,0,0
1314363191.26965475,0.00009082,0.00003659,-419.51159668,0,0,0
1314363191.32071710,0.00009102,0.00003663,-419.98028564,0,0,0
1314363191.36970544,0.00009081,0.00003660,-420.45028687,0,0,0
1314363191.42146015,0.00009102,0.00003664,-420.91903687,0,0,0
1314363191.46871662,0.00009080,0.00003662,-421.38916016,0,0,0
1314363191.52064610,0.00009101,0.00003666,-421.85806274,0,0,0
1314363191.57353282,0.00009080,0.00003663,-422.32815552,0,0,0
1314363191.62158155,0.00009100,0.00003667,-422.79714966,0,0,0
1314363191.66863418,0.00009079,0.00003664,-423.26742554,0,0,0
1314363191.70955539,0.00009099,0.00003668,-423.73651123,0,0,0
1314363191.76957130,0.00009099,0.00003668,-424.11227417,0,0,0
1314363191.82145858,0.00009099,0.00003669,-424.67602539,0,0,0
1314363191.86961627,0.00009078,0.00003666,-425.14648438,0,0,0
1314363191.92063785,0.00009098,0.00003670,-425.61572266,0,0,0
1314363191.96146655,0.00009077,0.00003667,-426.08630371,0,0,0
1314363192.02067280,0.00009077,0.00003668,-426.46231079,0,0,0
1314363192.06866670,0.00009076,0.00003668,-427.02627563,0,0,0
1314363192.10944128,0.00009097,0.00003672,-427.49572754,0,0,0
1314363192.16967344,0.00009097,0.00003672,-427.87185669,0,0,0
1314363192.21348476,0.00009096,0.00003673,-428.43609619,0,0,0
1314363192.26962471,0.00009096,0.00003673,-428.81231689,0,0,0
1314363192.32150292,0.00009096,0.00003674,-429.37670898,0,0,0
1314363192.36954093,0.00009075,0.00003671,-429.84765625,0,0,0
1314363192.42146873,0.00009095,0.00003675,-430.31747437,0,0,0
1314363192.46200323,0.00009074,0.00003672,-430.78848267,0,0,0
1314363192.50869370,0.00009074,0.00003672,-431.16485596,0,0,0
1314363192.56865883,0.00009094,0.00003676,-431.63473511,0,0,0
1314363192.62065339,0.00009094,0.00003676,-432.19937134,0,0,0
1314363192.66963935,0.00009073,0.00003673,-432.67062378,0,0,0
1314363192.72055674,0.00009093,0.00003677,-433.14068604,0,0,0
1314363192.76951694,0.00009073,0.00003674,-433.61206055,0,0,0
1314363192.82162046,0.00009093,0.00003678,-434.08227539,0,0,0
1314363192.86868358,0.00009072,0.00003675,-434.55368042,0,0,0
1314363192.91858935,0.00009092,0.00003679,-435.02398682,0,0,0
1314363192.96871138,0.00009072,0.00003676,-435.49557495,0,0,0
1314363193.00947475,0.00009092,0.00003679,-435.96603394,0,0,0
1314363193.06865549,0.00009092,0.00003680,-436.34298706,0,0,0
1314363193.12157249,0.00009091,0.00003680,-436.90844727,0,0,0
1314363193.17346931,0.00009071,0.00003677,-437.38027954,0,0,0
1314363193.22157121,0.00009091,0.00003681,-437.85104370,0,0,0
1314363193.26866531,0.00009070,0.00003678,-438.32296753,0,0,0
1314363193.30946255,0.00009091,0.00003682,-438.79376221,0,0,0
1314363193.36866879,0.00009090,0.00003682,-439.17089844,0,0,0
1314363193.42149401,0.00009090,0.00003682,-439.73669434,0,0,0
1314363193.46858239,0.00009069,0.00003679,-440.20886230,0,0,0
1314363193.52149439,0.00009090,0.00003683,-440.67984009,0,0,0
1314363193.56945920,0.00009069,0.00003680,-441.15206909,0,0,0
1314363193.62222886,0.00009090,0.00003683,-441.62319946,0,0,0
1314363193.66865516,0.00009069,0.00003680,-442.09552002,0,0,0
1314363193.70980835,0.00009089,0.00003684,-442.56671143,0,0,0
1314363193.76965451,0.00009089,0.00003684,-442.94418335,0,0,0
1314363193.82149482,0.00009089,0.00003684,-443.51040649,0,0,0
1314363193.86866879,0.00009068,0.00003681,-443.98291016,0,0,0
1314363193.92166591,0.00009089,0.00003685,-444.45428467,0,0,0
1314363193.96945620,0.00009068,0.00003681,-444.92684937,0,0,0
1314363194.02054667,0.00009089,0.00003685,-445.39831543,0,0,0
1314363194.06965399,0.00009068,0.00003682,-445.87094116,0,0,0
1314363194.10950780,0.00009088,0.00003685,-446.34249878,0,0,0
1314363194.16866040,0.00009088,0.00003685,-446.72030640,0,0,0
1314363194.22144222,0.00009088,0.00003685,-447.28704834,0,0,0
1314363194.26862359,0.00009068,0.00003682,-447.75997925,0,0,0
1314363194.30862832,0.00009088,0.00003685,-448.23184204,0,0,0
1314363194.36149144,0.00009088,0.00003685,-448.60983276,0,0,0
1314363194.40947938,0.00009068,0.00003682,-449.08294678,0,0,0
1314363194.46856332,0.00009088,0.00003685,-449.55496216,0,0,0
1314363194.52147007,0.00009088,0.00003685,-450.12219238,0,0,0
1314363194.57358861,0.00009068,0.00003682,-450.59545898,0,0,0
1314363194.61347270,0.00009088,0.00003685,-451.06762695,0,0,0
1314363194.67346907,0.00009088,0.00003685,-451.44589233,0,0,0
1314363194.72146535,0.00009088,0.00003685,-452.01333618,0,0,0
1314363194.76143146,0.00009068,0.00003682,-452.48672485,0,0,0
1314363194.80863309,0.00009068,0.00003682,-452.86505127,0,0,0
1314363194.86858177,0.00009088,0.00003685,-453.33746338,0,0,0
1314363194.92050076,0.00009088,0.00003685,-453.90502930,0,0,0
1314363194.97241473,0.00009068,0.00003681,-454.37857056,0,0,0
1314363195.02146602,0.00009088,0.00003685,-454.85113525,0,0,0
1314363195.06057167,0.00009068,0.00003681,-455.32482910,0,0,0
1314363195.12062836,0.00009068,0.00003681,-455.70333862,0,0,0
1314363195.16946507,0.00009068,0.00003681,-456.27120972,0,0,0
1314363195.22062564,0.00009089,0.00003684,-456.74398804,0,0,0
1314363195.26857710,0.00009069,0.00003680,-457.21780396,0,0,0
1314363195.32145834,0.00009089,0.00003683,-457.69070435,0,0,0
1314363195.36957216,0.00009069,0.00003680,-458.16464233,0,0,0
1314363195.42146969,0.00009090,0.00003683,-458.63760376,0,0,0
1314363195.46055126,0.00009069,0.00003679,-459.11160278,0,0,0
1314363195.52058220,0.00009070,0.00003679,-459.49047852,0,0,0
1314363195.56945753,0.00009070,0.00003678,-460.05877686,0,0,0
1314363195.60861278,0.00009090,0.00003681,-460.53195190,0,0,0
1314363195.66859412,0.00009091,0.00003681,-460.91091919,0,0,0
1314363195.70946407,0.00009091,0.00003680,-461.47943115,0,0,0
1314363195.76862645,0.00009091,0.00003680,-461.85848999,0,0,0
1314363195.82144952,0.00009091,0.00003679,-462.42712402,0,0,0
1314363195.86144328,0.00009071,0.00003676,-462.90145874,0,0,0
1314363195.90858936,0.00009072,0.00003675,-463.28057861,0,0,0
1314363195.96144247,0.00009092,0.00003678,-463.75405884,0,0,0
1314363196.02053571,0.00009072,0.00003674,-464.22857666,0,0,0
1314363196.06862855,0.00009073,0.00003674,-464.79739380,0,0,0
1314363196.12047529,0.00009093,0.00003676,-465.27099609,0,0,0
1314363196.16862488,0.00009073,0.00003673,-465.74563599,0,0,0
1314363196.21071768,0.00009094,0.00003675,-466.21932983,0,0,0
1314363196.26048923,0.00009094,0.00003675,-466.59872437,0,0,0
1314363196.30856895,0.00009074,0.00003671,-467.07351685,0,0,0
1314363196.36192203,0.00009095,0.00003674,-467.54739380,0,0,0
1314363196.42054844,0.00009075,0.00003670,-468.02224731,0,0,0
1314363196.46160388,0.00009075,0.00003669,-468.59161377,0,0,0
1314363196.52160239,0.00009076,0.00003669,-468.97122192,0,0,0
1314363196.56854105,0.00009076,0.00003668,-469.54067993,0,0,0
1314363196.62151718,0.00009097,0.00003671,-470.01489258,0,0,0
1314363196.66955209,0.00009077,0.00003667,-470.49008179,0,0,0
1314363196.72059155,0.00009097,0.00003670,-470.96432495,0,0,0
1314363196.76170063,0.00009077,0.00003666,-471.43963623,0,0,0
1314363196.82152271,0.00009078,0.00003665,-471.81954956,0,0,0
1314363196.86861062,0.00009078,0.00003665,-472.38949585,0,0,0
1314363196.92048597,0.00009099,0.00003668,-472.86407471,0,0,0
1314363196.96862411,0.00009079,0.00003664,-473.33966064,0,0,0
1314363197.02148271,0.00009099,0.00003666,-473.81430054,0,0,0
1314363197.06855249,0.00009079,0.00003663,-474.28994751,0,0,0
1314363197.12100816,0.00009100,0.00003665,-474.76477051,0,0,0
1314363197.16950893,0.00009080,0.00003662,-475.24050903,0,0,0
1314363197.22148252,0.00009100,0.00003664,-475.71536255,0,0,0
1314363197.26859164,0.00009081,0.00003661,-476.19119263,0,0,0
1314363197.31234407,0.00009101,0.00003663,-476.66613770,0,0,0
1314363197.36958194,0.00009101,0.00003663,-477.04653931,0,0,0
1314363197.42148805,0.00009102,0.00003662,-477.61718750,0,0,0
1314363197.46106839,0.00009082,0.00003659,-478.09329224,0,0,0
1314363197.50850081,0.00009082,0.00003659,-478.47384644,0,0,0
1314363197.56945109,0.00009102,0.00003661,-478.94915771,0,0,0
1314363197.62060356,0.00009103,0.00003661,-479.52017212,0,0,0
1314363197.66194296,0.00009083,0.00003657,-479.99655151,0,0,0
1314363197.71081328,0.00009083,0.00003657,-480.37734985,0,0,0
1314363197.76050043,0.00009103,0.00003660,-480.85290527,0,0,0
1314363197.82145667,0.00009083,0.00003656,-481.32949829,0,0,0
1314363197.87254143,0.00009084,0.00003655,-481.90093994,0,0,0
1314363197.92050338,0.00009104,0.00003658,-482.37670898,0,0,0
1314363197.96976924,0.00009084,0.00003655,-482.85345459,0,0,0
1314363198.02327538,0.00009105,0.00003657,-483.32934570,0,0,0
1314363198.06857610,0.00009085,0.00003654,-483.80624390,0,0,0
1314363198.12180138,0.00009105,0.00003657,-484.28219604,0,0,0
1314363198.16951132,0.00009085,0.00003653,-484.75921631,0,0,0
1314363198.22140288,0.00009105,0.00003656,-485.23538208,0,0,0
1314363198.26852965,0.00009086,0.00003653,-485.71255493,0,0,0
1314363198.32106161,0.00009106,0.00003655,-486.18875122,0,0,0
1314363198.36949229,0.00009086,0.00003652,-486.66607666,0,0,0
1314363198.42049742,0.00009106,0.00003655,-487.14245605,0,0,0
1314363198.46848273,0.00009086,0.00003651,-487.61981201,0,0,0
1314363198.52050042,0.00009107,0.00003654,-488.09634399,0,0,0
1314363198.56957054,0.00009087,0.00003651,-488.57391357,0,0,0
1314363198.62146974,0.00009107,0.00003654,-489.05041504,0,0,0
1314363198.66849422,0.00009087,0.00003650,-489.52798462,0,0,0
1314363198.72046542,0.00009107,0.00003653,-490.00466919,0,0,0
1314363198.76947927,0.00009087,0.00003650,-490.48236084,0,0,0
1314363198.82048106,0.00009108,0.00003652,-490.95913696,0,0,0
1314363198.86951852,0.00009088,0.00003649,-491.43695068,0,0,0
1314363198.92048788,0.00009108,0.00003652,-491.91381836,0,0,0
1314363198.96852398,0.00009088,0.00003649,-492.39172363,0,0,0
1314363199.02159810,0.00009108,0.00003651,-492.86871338,0,0,0
1314363199.06955290,0.00009088,0.00003648,-493.34680176,0,0,0
1314363199.12051630,0.00009109,0.00003651,-493.82388306,0,0,0
1314363199.17351985,0.00009089,0.00003648,-494.30206299,0,0,0
1314363199.22143459,0.00009109,0.00003651,-494.77932739,0,0,0
1314363199.26942158,0.00009089,0.00003647,-495.25762939,0,0,0
1314363199.32321072,0.00009109,0.00003650,-495.73498535,0,0,0
1314363199.36941051,0.00009089,0.00003647,-496.21343994,0,0,0
1314363199.42148709,0.00009109,0.00003650,-496.69085693,0,0,0
1314363199.46846437,0.00009089,0.00003647,-497.16940308,0,0,0
1314363199.52144647,0.00009110,0.00003649,-497.64703369,0,0,0
1314363199.56945157,0.00009090,0.00003646,-498.12567139,0,0,0
1314363199.62234354,0.00009110,0.00003649,-498.60336304,0,0,0
1314363199.66847014,0.00009090,0.00003646,-499.08212280,0,0,0
1314363199.71132541,0.00009110,0.00003649,-499.55990601,0,0,0
1314363199.76850176,0.00009110,0.00003648,-499.94259644,0,0,0
1314363199.82150292,0.00009110,0.00003648,-500.51672363,0,0,0
1314363199.86955190,0.00009090,0.00003645,-500.99578857,0,0,0
1314363199.92052960,0.00009111,0.00003648,-501.47381592,0,0,0
1314363199.96947765,0.00009091,0.00003645,-501.95300293,0,0,0
1314363200.02046967,0.00009111,0.00003647,-502.43118286,0,0,0
1314363200.06852245,0.00009091,0.00003644,-502.91040039,0,0,0
1314363200.10973954,0.00009111,0.00003647,-503.38873291,0,0,0
1314363200.16848803,0.00009111,0.00003647,-503.77178955,0,0,0
1314363200.22146964,0.00009111,0.00003647,-504.34649658,0,0,0
1314363200.26938415,0.00009091,0.00003644,-504.82598877,0,0,0
1314363200.32046700,0.00009112,0.00003646,-505.30456543,0,0,0
1314363200.36956334,0.00009092,0.00003643,-505.78411865,0,0,0
1314363200.41852069,0.00009112,0.00003646,-506.26275635,0,0,0
1314363200.46852112,0.00009092,0.00003643,-506.74246216,0,0,0
1314363200.52157402,0.00009112,0.00003646,-507.22125244,0,0,0
1314363200.56950188,0.00009092,0.00003643,-507.70111084,0,0,0
1314363200.62150002,0.00009112,0.00003646,-508.18002319,0,0,0
1314363200.66847825,0.00009092,0.00003643,-508.65994263,0,0,0
1314363200.72179294,0.00009112,0.00003645,-509.13891602,0,0,0
1314363200.77350402,0.00009092,0.00003643,-509.61895752,0,0,0
1314363200.82054043,0.00009112,0.00003645,-510.09799194,0,0,0
1314363200.86939502,0.00009092,0.00003642,-510.57815552,0,0,0
1314363200.92136383,0.00009113,0.00003645,-511.05734253,0,0,0
1314363200.96851563,0.00009093,0.00003642,-511.53762817,0,0,0
1314363201.02147436,0.00009113,0.00003645,-512.01690674,0,0,0
1314363201.06933212,0.00009093,0.00003642,-512.49725342,0,0,0
1314363201.12154651,0.00009113,0.00003644,-512.97674561,0,0,0
1314363201.17049956,0.00009093,0.00003642,-513.45721436,0,0,0
1314363201.22150207,0.00009113,0.00003644,-513.93676758,0,0,0
1314363201.26943231,0.00009093,0.00003641,-514.41748047,0,0,0
1314363201.31966782,0.00009113,0.00003644,-514.89715576,0,0,0
1314363201.36961985,0.00009093,0.00003641,-515.37792969,0,0,0
1314363201.42148900,0.00009114,0.00003644,-515.85772705,0,0,0
1314363201.46834016,0.00009094,0.00003641,-516.33856201,0,0,0
1314363201.52149701,0.00009114,0.00003643,-516.81842041,0,0,0
1314363201.56945395,0.00009094,0.00003640,-517.29931641,0,0,0
1314363201.62150931,0.00009114,0.00003643,-517.77929688,0,0,0
1314363201.66852140,0.00009094,0.00003640,-518.26031494,0,0,0
1314363201.70943952,0.00009114,0.00003643,-518.74041748,0,0,0
1314363201.76852989,0.00009114,0.00003643,-519.12493896,0,0,0
1314363201.82145882,0.00009115,0.00003642,-519.70184326,0,0,0
1314363201.86856198,0.00009094,0.00003640,-520.18310547,0,0,0
1314363201.92281866,0.00009115,0.00003642,-520.66345215,0,0,0
1314363201.96933508,0.00009095,0.00003639,-521.14489746,0,0,0
1314363202.01827788,0.00009115,0.00003642,-521.62536621,0,0,0
1314363202.06907868,0.00009095,0.00003639,-522.10693359,0,0,0
1314363202.12057376,0.00009115,0.00003642,-522.58752441,0,0,0
1314363202.16852736,0.00009095,0.00003639,-523.06915283,0,0,0
1314363202.22165751,0.00009115,0.00003642,-523.54986572,0,0,0
1314363202.26849747,0.00009095,0.00003639,-524.03161621,0,0,0
1314363202.32047510,0.00009115,0.00003641,-524.51245117,0,0,0
1314363202.36944318,0.00009095,0.00003639,-524.99426270,0,0,0
1314363202.41893649,0.00009116,0.00003641,-525.47521973,0,0,0
1314363202.46852112,0.00009096,0.00003638,-525.95709229,0,0,0
1314363202.52130771,0.00009116,0.00003641,-526.43817139,0,0,0
1314363202.56863117,0.00009096,0.00003638,-526.92022705,0,0,0
1314363202.62145877,0.00009116,0.00003641,-527.40136719,0,0,0
1314363202.66861916,0.00009096,0.00003638,-527.88354492,0,0,0
1314363202.72142315,0.00009116,0.00003640,-528.36480713,0,0,0
1314363202.76947403,0.00009096,0.00003638,-528.84710693,0,0,0
1314363202.82210159,0.00009116,0.00003640,-529.32849121,0,0,0
1314363202.87048721,0.00009096,0.00003637,-529.81097412,0,0,0
1314363202.92047858,0.00009116,0.00003640,-530.29241943,0,0,0
1314363202.96948481,0.00009096,0.00003637,-530.77496338,0,0,0
1314363203.02143764,0.00009117,0.00003640,-531.25659180,0,0,0
1314363203.06987977,0.00009097,0.00003637,-531.73931885,0,0,0
1314363203.12059593,0.00009117,0.00003639,-532.22106934,0,0,0
1314363203.16953659,0.00009097,0.00003637,-532.70385742,0,0,0
1314363203.22035980,0.00009117,0.00003639,-533.18579102,0,0,0
1314363203.26851320,0.00009097,0.00003636,-533.66870117,0,0,0
1314363203.32047033,0.00009117,0.00003639,-534.15069580,0,0,0
1314363203.36860466,0.00009097,0.00003636,-534.63372803,0,0,0
1314363203.42148876,0.00009117,0.00003639,-535.11578369,0,0,0
1314363203.46855116,0.00009097,0.00003636,-535.59893799,0,0,0
1314363203.51933074,0.00009118,0.00003639,-536.08111572,0,0,0
1314363203.56945848,0.00009098,0.00003636,-536.56433105,0,0,0
1314363203.61931825,0.00009118,0.00003638,-537.04663086,0,0,0
1314363203.67131853,0.00009098,0.00003636,-537.52996826,0,0,0
1314363203.71347642,0.00009118,0.00003638,-538.01239014,0,0,0
1314363203.77259350,0.00009118,0.00003638,-538.39874268,0,0,0
1314363203.82145929,0.00009118,0.00003638,-538.97833252,0,0,0
1314363203.86945581,0.00009098,0.00003635,-539.46197510,0,0,0
1314363203.92059970,0.00009118,0.00003638,-539.94458008,0,0,0
1314363203.97347522,0.00009098,0.00003635,-540.42828369,0,0,0
1314363204.02047014,0.00009118,0.00003638,-540.91101074,0,0,0
1314363204.06950688,0.00009098,0.00003635,-541.39483643,0,0,0
1314363204.12125349,0.00009119,0.00003638,-541.87768555,0,0,0
1314363204.16938496,0.00009098,0.00003635,-542.36163330,0,0,0
1314363204.22147942,0.00009119,0.00003637,-542.84460449,0,0,0
1314363204.26952362,0.00009099,0.00003635,-543.32867432,0,0,0
1314363204.32059598,0.00009119,0.00003638,-543.81182861,0,0,0
1314363204.36995935,0.00009099,0.00003635,-544.29602051,0,0,0
1314363204.42147017,0.00009119,0.00003638,-544.77929688,0,0,0
1314363204.46949387,0.00009099,0.00003635,-545.26367188,0,0,0
1314363204.52123594,0.00009119,0.00003638,-545.74707031,0,0,0
1314363204.56921387,0.00009098,0.00003635,-546.23156738,0,0,0
1314363204.62146854,0.00009119,0.00003638,-546.71508789,0,0,0
1314363204.66846991,0.00009098,0.00003635,-547.19970703,0,0,0
1314363204.72045350,0.00009119,0.00003638,-547.68328857,0,0,0
1314363204.76947308,0.00009098,0.00003635,-548.16802979,0,0,0
1314363204.81906343,0.00009119,0.00003638,-548.65173340,0,0,0
1314363204.87059426,0.00009098,0.00003635,-549.13647461,0,0,0
1314363204.92154217,0.00009119,0.00003638,-549.62023926,0,0,0
1314363204.96846938,0.00009098,0.00003636,-550.10522461,0,0,0
1314363205.02144194,0.00009118,0.00003638,-550.58911133,0,0,0
1314363205.06919098,0.00009098,0.00003636,-551.07409668,0,0,0
1314363205.12149072,0.00009118,0.00003639,-551.55816650,0,0,0
1314363205.16995096,0.00009098,0.00003636,-552.04327393,0,0,0
1314363205.21983647,0.00009118,0.00003639,-552.52746582,0,0,0
1314363205.26978922,0.00009098,0.00003636,-553.01269531,0,0,0
1314363205.32119703,0.00009118,0.00003639,-553.49694824,0,0,0
1314363205.36859560,0.00009098,0.00003636,-553.98229980,0,0,0
1314363205.42146015,0.00009118,0.00003639,-554.46661377,0,0,0
1314363205.46848917,0.00009098,0.00003636,-554.95208740,0,0,0
1314363205.52058220,0.00009118,0.00003639,-555.43652344,0,0,0
1314363205.57357240,0.00009098,0.00003637,-555.92205811,0,0,0
1314363205.62150574,0.00009118,0.00003640,-556.40661621,0,0,0
1314363205.66859722,0.00009098,0.00003637,-556.89227295,0,0,0
1314363205.70949721,0.00009118,0.00003640,-557.37695312,0,0,0
1314363205.76946068,0.00009118,0.00003640,-557.76513672,0,0,0
